Orbital Elements at Epoch 2459000.5 (2020-May-31.0) TDB
Reference: JPL 16 (heliocentric ecliptic J2000)
Element | Value | Uncertainty (1-sigma) | Units |
e | .1550370002108172 | 9.5154e-08 | |
a | 2.578473768916703 | 1.5562e-08 | au |
q | 2.178714930661577 | 2.3864e-07 | au |
i | 14.04939691824677 | 7.289e-06 | deg |
node | 19.01114961291221 | 1.865e-05 | deg |
peri | 351.6952279842573 | 2.5679e-05 | deg |
M | 350.7673261213855 | 1.6814e-05 | deg |
tp | 2459039.285330632581 (2020-Jul-08.78533063) | 7.065e-05 | TDB |
period | 1512.315848182499 4.14 | 1.3691e-05 3.748e-08 | d yr |
n | .2380455117445525 | 2.155e-09 | deg/d |
Q | 2.978232607171829 | 1.7974e-08 | au |
|
| | Orbit Determination Parameters
Additional Information
|